User: anonymous   Login
Location: Unspecified
(0.0000°N, 0.0000°E)
Time: 21:19:56
(UTC+00:00)
Language:

STARLINK-35160 - Orbit

View from above orbital plane
View from above orbital plane
View from above satellite
View from above satellite

Ground track
Ground track

The orbit is defined by the following mean orbital elements,

1 65911U          26145.58335647 +.00000000 +00000-0 +91522-3 0 00006
2 65911  53.1585 168.7564 0001397  93.7357  47.6310 15.33536533    00
Epoch (UTC): 25 May 2026 14:00:01
Eccentricity: 0.0001397
inclination: 53.1585°
perigee height: 464 km
apogee height: 466 km
right ascension of ascending node: 168.7564°
argument of perigee: 93.7357°
revolutions per day: 15.33536533
mean anomaly at epoch: 47.6310°

The dashed part of the orbit path shows where the satellite is in the earth's shadow,  

DLR